STARLINK-11191 [DTC] (60410 NORAD) Tracking and Keplerian Element Data

This shows tracking and keplerian element data for the satellite.

Feedback or suggestion? Click here.




ElementValue
Catalog60410
NameSTARLINK-11191 [DTC]
Epoch Orbit1120
Epoch Day286.89309087
Epoch Year2024
RAAN94.0701
Inclination53.1578
Eccentricity9.98E-05
Argument of Perigee110.4845
Mean Anonmoly249.628
Mean Motion15.69772983
Decay Rate6.784E-05
L11 60410U 24141N 24286.89309087 .00006784 00000+0 60648-4 0 9991
L22 60410 53.1578 94.0701 0000998 110.4845 249.6280 15.69772983 11204



Live tracking and technical data element details for STARLINK-11191 [DTC] (NORAD 60410). STARLINK-11191 [DTC] can be tracked NOW for your location showing map with azimuth and elevation plus other details from your city location.







IsCatalogInMostPopularTable: catalog: 60410, numindb: 8
Update: records affected: 1



GetName: 60410 STARLINK-11191 [DTC]

Hit Count: updated at: Tue, 03 Dec 2024 01:25:30 GMT